Regional Weather Roundup
Issued by NWS

Home | Current Version | Previous Version | Graphics & Text | Print | Product List | Glossary Off
Versions: 1 2 3 4 5 6 7 8 9 10 11 12 13 14 15 16 17 18 19 20 21 22 23 24 25 26 27 28 29 30 31 32 33 34 35 36 37 38 39 40 41 42 43 44 45 46 47 48 49 50

000
ASUS43 KMKX 260959
RWRWI

WISCONSIN REGIONAL WEATHER ROUNDUP
NATIONAL WEATHER SERVICE MILWAUKEE/SULLIVAN WI
500 AM CDT THU APR 26 2018

NOTE: "FAIR" INDICATES FEW OR NO CLOUDS BELOW 12,000 FEET WITH NO
SIGNIFICANT WEATHER AND/OR OBSTRUCTIONS TO VISIBILITY.

WIZ001-002-006>008-014>016-023>028-261100-
NORTHWEST WISCONSIN

CITY           SKY/WX    TMP DP  RH WIND       PRES   REMARKS
SUPERIOR ARPT  FAIR      37  25  63 SW5       29.82F WCI  33
ASHLAND        FAIR      35  24  64 S8        29.84F WCI  29
HAYWARD        FAIR      29  25  85 CALM      29.86F
SIREN          FAIR      32  26  76 CALM      29.87S
CUMBERLAND     FAIR      32  27  80 CALM      29.88S
RICE LAKE      FAIR      31  29  91 CALM      29.89F
CHETEK         FAIR      30  27  90 CALM      29.89F
LADYSMITH      FAIR      32  28  84 SE3       29.90S
EAU CLAIRE     NOT AVBL
MENOMONIE      FAIR      34  31  91 CALM      29.90S
NEW RICHMOND   FAIR      33  29  83 CALM      29.88S
OSCEOLA        FAIR      37  30  75 CALM      29.91S
$$

WIZ003>005-009-010-017-018-261100-
NORTH CENTRAL WISCONSIN

CITY           SKY/WX    TMP DP  RH WIND       PRES   REMARKS
MANITOWISH WTR FAIR      26  26 100 CALM      29.86F
ARBOR VITAE    FAIR      32  27  81 CALM      29.88S
WOODRUFF       FAIR      32  27  81 CALM      29.88S
RHINELANDER    FAIR      27  22  81 W3        29.88F
EAGLE RIVER    FAIR      27  23  83 CALM      29.87S
LAND O LAKES   FAIR      25  23  92 CALM      29.88F
PHILLIPS       FAIR      28  25  89 CALM      29.87F
TOMAHAWK       FAIR      26  23  89 CALM      29.90S
MEDFORD        FAIR      35  27  70 S5        29.89S WCI  31
MERRILL        FAIR      26  24  91 CALM      29.91S
$$

WIZ029-030-035-036-043>047-261100-
CENTRAL WISCONSIN

CITY           SKY/WX    TMP DP  RH WIND       PRES   REMARKS
WAUSAU         FAIR      31  27  85 CALM      29.88F
MOSINEE        FAIR      32  28  86 CALM      29.91F
MARSHFIELD     FAIR      35  29  78 SW5       29.89F WCI  31
STEVENS POINT  FAIR      29  28  97 CALM      29.92F
WAUPACA        FAIR      35  31  85 CALM      29.93S
WAUTOMA        FAIR      29  27  92 CALM      29.94S
WISC RAPIDS    FAIR      32  27  81 CALM      29.92F
CAMP DOUGLAS   FAIR      32  29  88 SE3       29.91F
$$

WIZ011>013-019>022-031-037>040-048>050-261100-
NORTHEAST WISCONSIN

CITY           SKY/WX    TMP DP  RH WIND       PRES   REMARKS
ANTIGO         FAIR      30  29  98 CALM      29.90S
SHAWANO        FAIR      33  31  94 CALM      29.92S
OCONTO         FAIR      28  26  92 CALM      29.92S
STURGEON BAY   FAIR      37  26  64 S8        29.92F WCI  31
GREEN BAY      FAIR      36  31  82 SW3       29.93S
MANITOWOC      FAIR      33  27  78 CALM      29.94F
APPLETON       FAIR      36  28  75 S5        29.92S WCI  32
CLINTONVILLE   FAIR      33  29  86 CALM      29.92F
OSHKOSH        FAIR      38  31  76 SW5       29.93S WCI  34
$$

WIZ032>034-041-042-053>061-261100-
SOUTHWEST WISCONSIN

CITY           SKY/WX    TMP DP  RH WIND       PRES   REMARKS
LA CROSSE      FAIR      40  33  76 SE5       29.92S
SPARTA         FAIR      29  26  88 CALM      29.93S
VIROQUA        FAIR      45  29  53 S3        29.92F
BOSCOBEL       FAIR      32  29  88 CALM      29.95S
PRAIRIE DU CHI FAIR      35  28  77 E3        29.94S
PLATTEVILLE    FAIR      38  32  81 SE6       29.95S WCI  33
$$

WIZ056-057-062-063-064-067-068-261100-
SOUTH CENTRAL WISCONSIN

CITY           SKY/WX    TMP DP  RH WIND       PRES   REMARKS
REEDSBURG      FAIR      38  31  74 CALM      29.93S
BARABOO/DELLS  FAIR      37  31  76 S5        29.93S WCI  34
LONE ROCK      NOT AVBL
MINERAL POINT  FAIR      36  34  93 SE6       29.94S WCI  31
MADISON        FAIR      40  31  70 SW3       29.95F
MIDDLETON      FAIR      40  31  70 SW3       29.95F
WATERTOWN      FAIR      33  32  96 CALM      29.95S
MONROE         FAIR      36  30  80 S9        29.95S WCI  29
JANESVILLE     FAIR      34  32  93 CALM      29.96S
$$

WIZ051-052-058>065-066-070>072-261100-
SOUTHEAST WISCONSIN

CITY           SKY/WX    TMP DP  RH WIND       PRES   REMARKS
MILWAUKEE      FAIR      38  29  70 W3        29.95F
WAUKESHA       FAIR      30  27  86 SW3       29.96S
MILWAUKEE/TIMM FAIR      32  27  80 CALM      29.96S
RACINE         FAIR      34  29  82 W7        29.97F WCI  28
BURLINGTON     FAIR      28  26  94 CALM      29.96S
KENOSHA        FAIR      31  27  85 CALM      29.96S
FOND DU LAC    FAIR      35  30  82 S5        29.94S WCI  31
SHEBOYGAN      FAIR      32  29  88 SW5       29.94S WCI  27
WEST BEND      FAIR      30  30 100 CALM      29.95S
JUNEAU         FAIR      33  30  88 CALM      29.96S
$$

LSZ147-162-261100-
LAKE SUPERIOR

STATION/POSITION TIME  TEMP    WIND        PRES    WAVE
                       AIR SEA DIR/SP/G            HT/PER
                 (UTC) (F)     (DEG/KT/KT) (MB)    (FT/S)
DEVILS ISLAND    0900   42     220/ 10/ 11 1010.4F
SAXON HARBOR     0940   35     190/  4/  7 1010.2S
$$

LMZ867-665-643>646-261100-
LAKE MICHIGAN

STATION/POSITION TIME  TEMP    WIND        PRES    WAVE
                       AIR SEA DIR/SP/G            HT/PER
                 (UTC) (F)     (DEG/KT/KT) (MB)    (FT/S)
NORTHPORT PIER   0940   31                 1013.2S
KEWAUNEE LAKESHO 0930   38     220/  4/  5 1013.1S
SHEBOYGAN LAKESH 0800   38     240/  8/  9 1014.6F
PORT WASHINGTON  0930   36     260/  3/  3 1015.2F
MILWAUKEE LAKESH 0930   40     270/  4/  4   N/A
KENOSHA   LAKESH 0900   37                 1014.9
$$

TC  - TEMPERATURE IN CELSIUS
VSB - VISIBILITY IN STATUTE MILES
WCI - WIND CHILL INDEX
HX  - HEAT INDEX





USA.gov is the U.S. government's official web portal to all federal, state and local government web resources and services.